Year,Month,Day,Hour,Minute,Value (Times are PST for temperature in C)
2010,07,11,00,00,18.40
2010,07,11,00,01,18.40
2010,07,11,00,02,18.30
2010,07,11,00,03,18.30
2010,07,11,00,04,18.30
2010,07,11,00,05,18.30
2010,07,11,00,06,18.20
2010,07,11,00,07,18.20
2010,07,11,00,08,18.20
2010,07,11,00,09,18.10
2010,07,11,00,10,18.10
2010,07,11,00,11,18.10
2010,07,11,00,12,18.10
2010,07,11,00,13,18.00
2010,07,11,00,14,18.00
2010,07,11,00,15,18.00
2010,07,11,00,16,18.00
2010,07,11,00,17,17.90
2010,07,11,00,18,17.90
2010,07,11,00,19,17.90
2010,07,11,00,20,17.90
2010,07,11,00,21,17.90
2010,07,11,00,22,17.80
2010,07,11,00,23,17.80
2010,07,11,00,24,17.80
2010,07,11,00,25,17.80
2010,07,11,00,26,17.80
2010,07,11,00,27,17.80
2010,07,11,00,28,17.80
2010,07,11,00,29,17.80
2010,07,11,00,30,17.80
2010,07,11,00,31,17.80
2010,07,11,00,32,17.80
2010,07,11,00,33,17.80
2010,07,11,00,34,17.70
2010,07,11,00,35,17.70
2010,07,11,00,36,17.70
2010,07,11,00,37,17.70
2010,07,11,00,38,17.60
2010,07,11,00,39,17.60
2010,07,11,00,40,17.60
2010,07,11,00,41,17.60
2010,07,11,00,42,17.60
2010,07,11,00,43,17.50
2010,07,11,00,44,17.50
2010,07,11,00,45,17.50
2010,07,11,00,46,17.40
2010,07,11,00,47,17.40
2010,07,11,00,48,17.40
2010,07,11,00,49,17.40
2010,07,11,00,50,17.30
2010,07,11,00,51,17.30
2010,07,11,00,52,17.30
2010,07,11,00,53,17.30
2010,07,11,00,54,17.20
2010,07,11,00,55,17.20
2010,07,11,00,56,17.20
2010,07,11,00,57,17.20
2010,07,11,00,58,17.20
2010,07,11,00,59,17.20
2010,07,11,01,00,17.10
2010,07,11,01,01,17.10
2010,07,11,01,02,17.10
2010,07,11,01,03,17.10
2010,07,11,01,04,17.10
2010,07,11,01,05,17.10
2010,07,11,01,06,17.10
2010,07,11,01,07,17.10
2010,07,11,01,08,17.10
2010,07,11,01,09,17.00
2010,07,11,01,10,17.00
2010,07,11,01,11,17.00
2010,07,11,01,12,17.00
2010,07,11,01,13,16.90
2010,07,11,01,14,16.90
2010,07,11,01,15,16.90
2010,07,11,01,16,16.90
2010,07,11,01,17,16.80
2010,07,11,01,18,16.80
2010,07,11,01,19,16.80
2010,07,11,01,20,16.80
2010,07,11,01,21,16.80
2010,07,11,01,22,16.80
2010,07,11,01,23,16.80
2010,07,11,01,24,16.80
2010,07,11,01,25,16.70
2010,07,11,01,26,16.70
2010,07,11,01,27,16.70
2010,07,11,01,28,16.70
2010,07,11,01,29,16.70
2010,07,11,01,30,16.80
2010,07,11,01,31,16.70
2010,07,11,01,32,16.70
2010,07,11,01,33,16.70
2010,07,11,01,34,16.70
2010,07,11,01,35,16.70
2010,07,11,01,36,16.70
2010,07,11,01,37,16.60
2010,07,11,01,38,16.60
2010,07,11,01,39,16.60
2010,07,11,01,40,16.60
2010,07,11,01,41,16.60
2010,07,11,01,42,16.50
2010,07,11,01,43,16.50
2010,07,11,01,44,16.50
2010,07,11,01,45,16.40
2010,07,11,01,46,16.40
2010,07,11,01,47,16.40
2010,07,11,01,48,16.40
2010,07,11,01,49,16.40
2010,07,11,01,50,16.30
2010,07,11,01,51,16.30
2010,07,11,01,52,16.30
2010,07,11,01,53,16.30
2010,07,11,01,54,16.30
2010,07,11,01,55,16.20
2010,07,11,01,56,16.20
2010,07,11,01,57,16.20
2010,07,11,01,58,16.20
2010,07,11,01,59,16.20
2010,07,11,02,00,16.20
2010,07,11,02,01,16.20
2010,07,11,02,02,16.20
2010,07,11,02,03,16.20
2010,07,11,02,04,16.20
2010,07,11,02,05,16.20
2010,07,11,02,06,16.20
2010,07,11,02,07,16.20
2010,07,11,02,08,16.20
2010,07,11,02,09,16.20
2010,07,11,02,10,16.20
2010,07,11,02,11,16.20
2010,07,11,02,12,16.20
2010,07,11,02,13,16.10
2010,07,11,02,14,16.10
2010,07,11,02,15,16.10
2010,07,11,02,16,16.10
2010,07,11,02,17,16.10
2010,07,11,02,18,16.10
2010,07,11,02,19,16.10
2010,07,11,02,20,16.10
2010,07,11,02,21,16.10
2010,07,11,02,22,16.00
2010,07,11,02,23,16.00
2010,07,11,02,24,16.00
2010,07,11,02,25,15.90
2010,07,11,02,26,15.90
2010,07,11,02,27,15.90
2010,07,11,02,28,15.90
2010,07,11,02,29,15.80
2010,07,11,02,30,15.80
2010,07,11,02,31,15.80
2010,07,11,02,32,15.80
2010,07,11,02,33,15.80
2010,07,11,02,34,15.70
2010,07,11,02,35,15.70
2010,07,11,02,36,15.70
2010,07,11,02,37,15.70
2010,07,11,02,38,15.70
2010,07,11,02,39,15.70
2010,07,11,02,40,15.70
2010,07,11,02,41,15.70
2010,07,11,02,42,15.70
2010,07,11,02,43,15.70
2010,07,11,02,44,15.60
2010,07,11,02,45,15.60
2010,07,11,02,46,15.60
2010,07,11,02,47,15.60
2010,07,11,02,48,15.60
2010,07,11,02,49,15.60
2010,07,11,02,50,15.60
2010,07,11,02,51,15.60
2010,07,11,02,52,15.50
2010,07,11,02,53,15.50
2010,07,11,02,54,15.50
2010,07,11,02,55,15.50
2010,07,11,02,56,15.40
2010,07,11,02,57,15.40
2010,07,11,02,58,15.40
2010,07,11,02,59,15.40
2010,07,11,03,00,15.40
2010,07,11,03,01,15.40
2010,07,11,03,02,15.40
2010,07,11,03,03,15.40
2010,07,11,03,04,15.40
2010,07,11,03,05,15.40
2010,07,11,03,06,15.30
2010,07,11,03,07,15.30
2010,07,11,03,08,15.30
2010,07,11,03,09,15.30
2010,07,11,03,10,15.30
2010,07,11,03,11,15.30
2010,07,11,03,12,15.30
2010,07,11,03,13,15.30
2010,07,11,03,14,15.30
2010,07,11,03,15,15.30
2010,07,11,03,16,15.30
2010,07,11,03,17,15.30
2010,07,11,03,18,15.30
2010,07,11,03,19,15.30
2010,07,11,03,20,15.30
2010,07,11,03,21,15.30
2010,07,11,03,22,15.30
2010,07,11,03,23,15.30
2010,07,11,03,24,15.30
2010,07,11,03,25,15.20
2010,07,11,03,26,15.20
2010,07,11,03,27,15.20
2010,07,11,03,28,15.20
2010,07,11,03,29,15.20
2010,07,11,03,30,15.20
2010,07,11,03,31,15.20
2010,07,11,03,32,15.20
2010,07,11,03,33,15.20
2010,07,11,03,34,15.20
2010,07,11,03,35,15.20
2010,07,11,03,36,15.20
2010,07,11,03,37,15.20
2010,07,11,03,38,15.20
2010,07,11,03,39,15.10
2010,07,11,03,40,15.10
2010,07,11,03,41,15.10
2010,07,11,03,42,15.00
2010,07,11,03,43,15.00
2010,07,11,03,44,15.00
2010,07,11,03,45,15.00
2010,07,11,03,46,15.00
2010,07,11,03,47,15.00
2010,07,11,03,48,15.00
2010,07,11,03,49,15.00
2010,07,11,03,50,15.00
2010,07,11,03,51,15.00
2010,07,11,03,52,15.00
2010,07,11,03,53,15.00
2010,07,11,03,54,15.00
2010,07,11,03,55,15.00
2010,07,11,03,56,15.00
2010,07,11,03,57,15.00
2010,07,11,03,58,15.00
2010,07,11,03,59,15.00
2010,07,11,04,00,15.00
2010,07,11,04,01,15.00
2010,07,11,04,02,15.00
2010,07,11,04,03,15.00
2010,07,11,04,04,14.90
2010,07,11,04,05,14.90
2010,07,11,04,06,14.90
2010,07,11,04,07,14.80
2010,07,11,04,08,14.80
2010,07,11,04,09,14.80
2010,07,11,04,10,14.80
2010,07,11,04,11,14.80
2010,07,11,04,12,14.70
2010,07,11,04,13,14.70
2010,07,11,04,14,14.70
2010,07,11,04,15,14.70
2010,07,11,04,16,14.70
2010,07,11,04,17,14.70
2010,07,11,04,18,14.60
2010,07,11,04,19,14.60
2010,07,11,04,20,14.60
2010,07,11,04,21,14.60
2010,07,11,04,22,14.60
2010,07,11,04,23,14.60
2010,07,11,04,24,14.60
2010,07,11,04,25,14.60
2010,07,11,04,26,14.50
2010,07,11,04,27,14.50
2010,07,11,04,28,14.50
2010,07,11,04,29,14.50
2010,07,11,04,30,14.50
2010,07,11,04,31,14.50
2010,07,11,04,32,14.40
2010,07,11,04,33,14.40
2010,07,11,04,34,14.40
2010,07,11,04,35,14.40
2010,07,11,04,36,14.40
2010,07,11,04,37,14.40
2010,07,11,04,38,14.40
2010,07,11,04,39,14.40
2010,07,11,04,40,14.40
2010,07,11,04,41,14.40
2010,07,11,04,42,14.40
2010,07,11,04,43,14.30
2010,07,11,04,44,14.30
2010,07,11,04,45,14.30
2010,07,11,04,46,14.30
2010,07,11,04,47,14.30
2010,07,11,04,48,14.30
2010,07,11,04,49,14.30
2010,07,11,04,50,14.30
2010,07,11,04,51,14.30
2010,07,11,04,52,14.30
2010,07,11,04,53,14.30
2010,07,11,04,54,14.30
2010,07,11,04,55,14.30
2010,07,11,04,56,14.30
2010,07,11,04,57,14.30
2010,07,11,04,58,14.30
2010,07,11,04,59,14.30
2010,07,11,05,00,14.30
2010,07,11,05,01,14.30
2010,07,11,05,02,14.20
2010,07,11,05,03,14.20
2010,07,11,05,04,14.20
2010,07,11,05,05,14.20
2010,07,11,05,06,14.20
2010,07,11,05,07,14.20
2010,07,11,05,08,14.20
2010,07,11,05,09,14.20
2010,07,11,05,10,14.20
2010,07,11,05,11,14.20
2010,07,11,05,12,14.10
2010,07,11,05,13,14.10
2010,07,11,05,14,14.10
2010,07,11,05,15,14.10
2010,07,11,05,16,14.10
2010,07,11,05,17,14.10
2010,07,11,05,18,14.10
2010,07,11,05,19,14.10
2010,07,11,05,20,14.00
2010,07,11,05,21,14.00
2010,07,11,05,22,14.00
2010,07,11,05,23,14.00
2010,07,11,05,24,14.00
2010,07,11,05,25,14.00
2010,07,11,05,26,14.00
2010,07,11,05,27,14.00
2010,07,11,05,28,13.90
2010,07,11,05,29,13.90
2010,07,11,05,30,13.90
2010,07,11,05,31,13.90
2010,07,11,05,32,13.90
2010,07,11,05,33,13.90
2010,07,11,05,34,13.90
2010,07,11,05,35,13.90
2010,07,11,05,36,13.90
2010,07,11,05,37,13.90
2010,07,11,05,38,13.90
2010,07,11,05,39,13.80
2010,07,11,05,40,13.80
2010,07,11,05,41,13.80
2010,07,11,05,42,13.80
2010,07,11,05,43,13.80
2010,07,11,05,44,13.80
2010,07,11,05,45,13.80
2010,07,11,05,46,13.80
2010,07,11,05,47,13.80
2010,07,11,05,48,13.80
2010,07,11,05,49,13.80
2010,07,11,05,50,13.80
2010,07,11,05,51,13.80
2010,07,11,05,52,13.80
2010,07,11,05,53,13.80
2010,07,11,05,54,13.80
2010,07,11,05,55,13.80
2010,07,11,05,56,13.80
2010,07,11,05,57,13.80
2010,07,11,05,58,13.80
2010,07,11,05,59,13.80
2010,07,11,06,00,13.80
2010,07,11,06,01,13.80
2010,07,11,06,02,13.80
2010,07,11,06,03,13.80
2010,07,11,06,04,13.80
2010,07,11,06,05,13.80
2010,07,11,06,06,13.80
2010,07,11,06,07,13.80
2010,07,11,06,08,13.80
2010,07,11,06,09,13.80
2010,07,11,06,10,13.80
2010,07,11,06,11,13.80
2010,07,11,06,12,13.80
2010,07,11,06,13,13.80
2010,07,11,06,14,13.80
2010,07,11,06,15,13.80
2010,07,11,06,16,13.80
2010,07,11,06,17,13.80
2010,07,11,06,18,13.80
2010,07,11,06,19,13.80
2010,07,11,06,20,13.80
2010,07,11,06,21,13.80
2010,07,11,06,22,13.80
2010,07,11,06,23,13.80
2010,07,11,06,24,13.80
2010,07,11,06,25,13.80
2010,07,11,06,26,13.80
2010,07,11,06,27,13.90
2010,07,11,06,28,13.90
2010,07,11,06,29,13.90
2010,07,11,06,30,13.90
2010,07,11,06,31,13.90
2010,07,11,06,32,13.90
2010,07,11,06,33,13.90
2010,07,11,06,34,13.90
2010,07,11,06,35,13.90
2010,07,11,06,36,14.00
2010,07,11,06,37,14.00
2010,07,11,06,38,14.00
2010,07,11,06,39,14.00
2010,07,11,06,40,14.00
2010,07,11,06,41,14.10
2010,07,11,06,42,14.10
2010,07,11,06,43,14.10
2010,07,11,06,44,14.10
2010,07,11,06,45,14.10
2010,07,11,06,46,14.10
2010,07,11,06,47,14.10
2010,07,11,06,48,14.10
2010,07,11,06,49,14.10
2010,07,11,06,50,14.20
2010,07,11,06,51,14.20
2010,07,11,06,52,14.20
2010,07,11,06,53,14.20
2010,07,11,06,54,14.20
2010,07,11,06,55,14.30
2010,07,11,06,56,14.30
2010,07,11,06,57,14.30
2010,07,11,06,58,14.30
2010,07,11,06,59,14.30
2010,07,11,07,00,14.30
2010,07,11,07,01,14.30
2010,07,11,07,02,14.30
2010,07,11,07,03,14.30
2010,07,11,07,04,14.40
2010,07,11,07,05,14.40
2010,07,11,07,06,14.40
2010,07,11,07,07,14.40
2010,07,11,07,08,14.40
2010,07,11,07,09,14.40
2010,07,11,07,10,14.50
2010,07,11,07,11,14.50
2010,07,11,07,12,14.60
2010,07,11,07,13,14.60
2010,07,11,07,14,14.60
2010,07,11,07,15,14.60
2010,07,11,07,16,14.60
2010,07,11,07,17,14.70
2010,07,11,07,18,14.70
2010,07,11,07,19,14.70
2010,07,11,07,20,14.70
2010,07,11,07,21,14.80
2010,07,11,07,22,14.80
2010,07,11,07,23,14.80
2010,07,11,07,24,14.90
2010,07,11,07,25,14.90
2010,07,11,07,26,14.90
2010,07,11,07,27,15.00
2010,07,11,07,28,15.00
2010,07,11,07,29,15.00
2010,07,11,07,30,15.00
2010,07,11,07,31,15.00
2010,07,11,07,32,15.00
2010,07,11,07,33,15.00
2010,07,11,07,34,15.00
2010,07,11,07,35,15.00
2010,07,11,07,36,15.00
2010,07,11,07,37,15.00
2010,07,11,07,38,15.00
2010,07,11,07,39,15.00
2010,07,11,07,40,15.00
2010,07,11,07,41,15.00
2010,07,11,07,42,15.10
2010,07,11,07,43,15.20
2010,07,11,07,44,15.20
2010,07,11,07,45,15.30
2010,07,11,07,46,15.30
2010,07,11,07,47,15.30
2010,07,11,07,48,15.30
2010,07,11,07,49,15.40
2010,07,11,07,50,15.40
2010,07,11,07,51,15.40
2010,07,11,07,52,15.40
2010,07,11,07,53,15.40
2010,07,11,07,54,15.40
2010,07,11,07,55,15.40
2010,07,11,07,56,15.50
2010,07,11,07,57,15.50
2010,07,11,07,58,15.50
2010,07,11,07,59,15.60
2010,07,11,08,00,15.60
2010,07,11,08,01,15.60
2010,07,11,08,02,15.60
2010,07,11,08,03,15.70
2010,07,11,08,04,15.70
2010,07,11,08,05,15.70
2010,07,11,08,06,15.70
2010,07,11,08,07,15.80
2010,07,11,08,08,15.80
2010,07,11,08,09,15.80
2010,07,11,08,10,15.80
2010,07,11,08,11,15.80
2010,07,11,08,12,15.80
2010,07,11,08,13,15.90
2010,07,11,08,14,15.90
2010,07,11,08,15,16.00
2010,07,11,08,16,16.00
2010,07,11,08,17,16.10
2010,07,11,08,18,16.20
2010,07,11,08,19,16.20
2010,07,11,08,20,16.30
2010,07,11,08,21,16.40
2010,07,11,08,22,16.40
2010,07,11,08,23,16.50
2010,07,11,08,24,16.60
2010,07,11,08,25,16.60
2010,07,11,08,26,16.70
2010,07,11,08,27,16.70
2010,07,11,08,28,16.80
2010,07,11,08,29,16.80
2010,07,11,08,30,16.80
2010,07,11,08,31,16.80
2010,07,11,08,32,16.80
2010,07,11,08,33,16.80
2010,07,11,08,34,16.90
2010,07,11,08,35,16.90
2010,07,11,08,36,16.90
2010,07,11,08,37,16.90
2010,07,11,08,38,17.00
2010,07,11,08,39,17.00
2010,07,11,08,40,17.00
2010,07,11,08,41,17.00
2010,07,11,08,42,17.10
2010,07,11,08,43,17.10
2010,07,11,08,44,17.10
2010,07,11,08,45,17.10
2010,07,11,08,46,17.10
2010,07,11,08,47,17.10
2010,07,11,08,48,17.00
2010,07,11,08,49,17.00
2010,07,11,08,50,17.00
2010,07,11,08,51,17.00
2010,07,11,08,52,17.10
2010,07,11,08,53,17.10
2010,07,11,08,54,17.20
2010,07,11,08,55,17.20
2010,07,11,08,56,17.30
2010,07,11,08,57,17.30
2010,07,11,08,58,17.30
2010,07,11,08,59,17.30
2010,07,11,09,00,17.30
2010,07,11,09,01,17.40
2010,07,11,09,02,17.40
2010,07,11,09,03,17.40
2010,07,11,09,04,17.40
2010,07,11,09,05,17.50
2010,07,11,09,06,17.60
2010,07,11,09,07,17.60
2010,07,11,09,08,17.60
2010,07,11,09,09,17.60
2010,07,11,09,10,17.70
2010,07,11,09,11,17.70
2010,07,11,09,12,17.70
2010,07,11,09,13,17.70
2010,07,11,09,14,17.70
2010,07,11,09,15,17.70
2010,07,11,09,16,17.70
2010,07,11,09,17,17.80
2010,07,11,09,18,17.90
2010,07,11,09,19,18.00
2010,07,11,09,20,18.00
2010,07,11,09,21,18.10
2010,07,11,09,22,18.20
2010,07,11,09,23,18.30
2010,07,11,09,24,18.40
2010,07,11,09,25,18.50
2010,07,11,09,26,18.60
2010,07,11,09,27,18.60
2010,07,11,09,28,18.70
2010,07,11,09,29,18.80
2010,07,11,09,30,18.90
2010,07,11,09,31,18.90
2010,07,11,09,32,19.00
2010,07,11,09,33,19.10
2010,07,11,09,34,19.20
2010,07,11,09,35,19.30
2010,07,11,09,36,19.40
2010,07,11,09,37,19.50
2010,07,11,09,38,19.50
2010,07,11,09,39,19.60
2010,07,11,09,40,19.60
2010,07,11,09,41,19.70
2010,07,11,09,42,19.70
2010,07,11,09,43,19.80
2010,07,11,09,44,19.90
2010,07,11,09,45,19.90
2010,07,11,09,46,20.00
2010,07,11,09,47,20.10
2010,07,11,09,48,20.20
2010,07,11,09,49,20.30
2010,07,11,09,50,20.50
2010,07,11,09,51,20.60
2010,07,11,09,52,20.70
2010,07,11,09,53,20.80
2010,07,11,09,54,20.90
2010,07,11,09,55,21.00
2010,07,11,09,56,21.10
2010,07,11,09,57,21.10
2010,07,11,09,58,21.20
2010,07,11,09,59,21.30
2010,07,11,10,00,21.30
2010,07,11,10,01,21.30
2010,07,11,10,02,21.30
2010,07,11,10,03,21.30
2010,07,11,10,04,21.30
2010,07,11,10,05,21.20
2010,07,11,10,06,21.20
2010,07,11,10,07,21.10
2010,07,11,10,08,21.10
2010,07,11,10,09,21.20
2010,07,11,10,10,21.30
2010,07,11,10,11,21.40
2010,07,11,10,12,21.50
2010,07,11,10,13,21.60
2010,07,11,10,14,21.60
2010,07,11,10,15,21.70
2010,07,11,10,16,21.70
2010,07,11,10,17,21.70
2010,07,11,10,18,21.80
2010,07,11,10,19,21.80
2010,07,11,10,20,21.90
2010,07,11,10,21,22.00
2010,07,11,10,22,22.10
2010,07,11,10,23,22.20
2010,07,11,10,24,22.30
2010,07,11,10,25,22.40
2010,07,11,10,26,22.50
2010,07,11,10,27,22.50
2010,07,11,10,28,22.60
2010,07,11,10,29,22.70
2010,07,11,10,30,22.70
2010,07,11,10,31,22.70
2010,07,11,10,32,22.70
2010,07,11,10,33,22.70
2010,07,11,10,34,22.60
2010,07,11,10,35,22.60
2010,07,11,10,36,22.70
2010,07,11,10,37,22.70
2010,07,11,10,38,22.70
2010,07,11,10,39,22.70
2010,07,11,10,40,22.60
2010,07,11,10,41,22.70
2010,07,11,10,42,22.70
2010,07,11,10,43,22.70
2010,07,11,10,44,22.70
2010,07,11,10,45,22.80
2010,07,11,10,46,22.80
2010,07,11,10,47,22.90
2010,07,11,10,48,22.90
2010,07,11,10,49,23.00
2010,07,11,10,50,23.10
2010,07,11,10,51,23.10
2010,07,11,10,52,23.10
2010,07,11,10,53,23.00
2010,07,11,10,54,23.00
2010,07,11,10,55,23.00
2010,07,11,10,56,23.00
2010,07,11,10,57,23.00
2010,07,11,10,58,23.00
2010,07,11,10,59,23.00
2010,07,11,11,00,23.00
2010,07,11,11,01,23.00
2010,07,11,11,02,22.90
2010,07,11,11,03,22.90
2010,07,11,11,04,22.80
2010,07,11,11,05,22.80
2010,07,11,11,06,22.70
2010,07,11,11,07,22.60
2010,07,11,11,08,22.50
2010,07,11,11,09,22.30
2010,07,11,11,10,22.30
2010,07,11,11,11,22.20
2010,07,11,11,12,22.20
2010,07,11,11,13,22.20
2010,07,11,11,14,22.30
2010,07,11,11,15,22.30
2010,07,11,11,16,22.30
2010,07,11,11,17,22.30
2010,07,11,11,18,22.40
2010,07,11,11,19,22.40
2010,07,11,11,20,22.40
2010,07,11,11,21,22.40
2010,07,11,11,22,22.50
2010,07,11,11,23,22.50
2010,07,11,11,24,22.50
2010,07,11,11,25,22.60
2010,07,11,11,26,22.60
2010,07,11,11,27,22.70
2010,07,11,11,28,22.80
2010,07,11,11,29,22.80
2010,07,11,11,30,22.90
2010,07,11,11,31,22.90
2010,07,11,11,32,22.80
2010,07,11,11,33,22.80
2010,07,11,11,34,22.70
2010,07,11,11,35,22.60
2010,07,11,11,36,22.60
2010,07,11,11,37,22.50
2010,07,11,11,38,22.40
2010,07,11,11,39,22.40
2010,07,11,11,40,22.40
2010,07,11,11,41,22.40
2010,07,11,11,42,22.40
2010,07,11,11,43,22.50
2010,07,11,11,44,22.50
2010,07,11,11,45,22.60
2010,07,11,11,46,22.60
2010,07,11,11,47,22.60
2010,07,11,11,48,22.70
2010,07,11,11,49,22.70
2010,07,11,11,50,22.70
2010,07,11,11,51,22.80
2010,07,11,11,52,22.80
2010,07,11,11,53,22.90
2010,07,11,11,54,22.90
2010,07,11,11,55,22.80
2010,07,11,11,56,22.80
2010,07,11,11,57,22.80
2010,07,11,11,58,22.80
2010,07,11,11,59,22.80
2010,07,11,12,00,22.90
2010,07,11,12,01,23.00
2010,07,11,12,02,23.10
2010,07,11,12,03,23.20
2010,07,11,12,04,23.20
2010,07,11,12,05,23.30
2010,07,11,12,06,23.40
2010,07,11,12,07,23.50
2010,07,11,12,08,23.60
2010,07,11,12,09,23.70
2010,07,11,12,10,23.80
2010,07,11,12,11,23.90
2010,07,11,12,12,23.90
2010,07,11,12,13,24.00
2010,07,11,12,14,24.10
2010,07,11,12,15,24.10
2010,07,11,12,16,24.10
2010,07,11,12,17,24.10
2010,07,11,12,18,24.10
2010,07,11,12,19,24.00
2010,07,11,12,20,24.00
2010,07,11,12,21,23.90
2010,07,11,12,22,23.90
2010,07,11,12,23,23.90
2010,07,11,12,24,23.90
2010,07,11,12,25,23.90
2010,07,11,12,26,23.90
2010,07,11,12,27,24.00
2010,07,11,12,28,24.00
2010,07,11,12,29,24.00
2010,07,11,12,30,24.10
2010,07,11,12,31,24.10
2010,07,11,12,32,24.20
2010,07,11,12,33,24.30
2010,07,11,12,34,24.30
2010,07,11,12,35,24.30
2010,07,11,12,36,24.30
2010,07,11,12,37,24.30
2010,07,11,12,38,24.30
2010,07,11,12,39,24.30
2010,07,11,12,40,24.30
2010,07,11,12,41,24.30
2010,07,11,12,42,24.30
2010,07,11,12,43,24.30
2010,07,11,12,44,24.30
2010,07,11,12,45,24.40
2010,07,11,12,46,24.40
2010,07,11,12,47,24.40
2010,07,11,12,48,24.30
2010,07,11,12,49,24.30
2010,07,11,12,50,24.40
2010,07,11,12,51,24.50
2010,07,11,12,52,24.50
2010,07,11,12,53,24.60
2010,07,11,12,54,24.80
2010,07,11,12,55,24.90
2010,07,11,12,56,25.00
2010,07,11,12,57,25.10
2010,07,11,12,58,25.10
2010,07,11,12,59,25.20
2010,07,11,13,00,25.20
2010,07,11,13,01,25.20
2010,07,11,13,02,25.30
2010,07,11,13,03,25.30
2010,07,11,13,04,25.40
2010,07,11,13,05,25.40
2010,07,11,13,06,25.40
2010,07,11,13,07,25.40
2010,07,11,13,08,25.40
2010,07,11,13,09,25.40
2010,07,11,13,10,25.40
2010,07,11,13,11,25.40
2010,07,11,13,12,25.50
2010,07,11,13,13,25.60
2010,07,11,13,14,25.70
2010,07,11,13,15,25.90
2010,07,11,13,16,26.00
2010,07,11,13,17,26.20
2010,07,11,13,18,26.30
2010,07,11,13,19,26.30
2010,07,11,13,20,26.30
2010,07,11,13,21,26.30
2010,07,11,13,22,26.30
2010,07,11,13,23,26.30
2010,07,11,13,24,26.20
2010,07,11,13,25,26.00
2010,07,11,13,26,25.90
2010,07,11,13,27,25.90
2010,07,11,13,28,25.80
2010,07,11,13,29,25.70
2010,07,11,13,30,25.60
2010,07,11,13,31,25.50
2010,07,11,13,32,25.50
2010,07,11,13,33,25.60
2010,07,11,13,34,25.70
2010,07,11,13,35,25.90
2010,07,11,13,36,26.10
2010,07,11,13,37,26.30
2010,07,11,13,38,26.50
2010,07,11,13,39,26.70
2010,07,11,13,40,26.90
2010,07,11,13,41,26.90
2010,07,11,13,42,26.80
2010,07,11,13,43,26.90
2010,07,11,13,44,26.90
2010,07,11,13,45,26.90
2010,07,11,13,46,27.00
2010,07,11,13,47,27.10
2010,07,11,13,48,27.00
2010,07,11,13,49,26.80
2010,07,11,13,50,26.70
2010,07,11,13,51,26.50
2010,07,11,13,52,26.40
2010,07,11,13,53,26.40
2010,07,11,13,54,26.50
2010,07,11,13,55,26.60
2010,07,11,13,56,26.70
2010,07,11,13,57,26.80
2010,07,11,13,58,26.90
2010,07,11,13,59,27.10
2010,07,11,14,00,27.20
2010,07,11,14,01,27.30
2010,07,11,14,02,27.50
2010,07,11,14,03,27.70
2010,07,11,14,04,27.90
2010,07,11,14,05,27.90
2010,07,11,14,06,28.00
2010,07,11,14,07,28.10
2010,07,11,14,08,28.20
2010,07,11,14,09,28.30
2010,07,11,14,10,28.50
2010,07,11,14,11,28.60
2010,07,11,14,12,28.70
2010,07,11,14,13,28.80
2010,07,11,14,14,28.90
2010,07,11,14,15,29.00
2010,07,11,14,16,29.00
2010,07,11,14,17,29.00
2010,07,11,14,18,29.00
2010,07,11,14,19,29.00
2010,07,11,14,20,28.90
2010,07,11,14,21,28.90
2010,07,11,14,22,28.90
2010,07,11,14,23,28.80
2010,07,11,14,24,28.80
2010,07,11,14,25,28.80
2010,07,11,14,26,28.80
2010,07,11,14,27,28.80
2010,07,11,14,28,28.80
2010,07,11,14,29,28.80
2010,07,11,14,30,28.90
2010,07,11,14,31,29.00
2010,07,11,14,32,29.00
2010,07,11,14,33,29.00
2010,07,11,14,34,28.80
2010,07,11,14,35,28.60
2010,07,11,14,36,28.50
2010,07,11,14,37,28.50
2010,07,11,14,38,28.50
2010,07,11,14,39,28.50
2010,07,11,14,40,28.40
2010,07,11,14,41,28.30
2010,07,11,14,42,28.30
2010,07,11,14,43,28.30
2010,07,11,14,44,28.30
2010,07,11,14,45,28.30
2010,07,11,14,46,28.30
2010,07,11,14,47,28.40
2010,07,11,14,48,28.50
2010,07,11,14,49,28.50
2010,07,11,14,50,28.60
2010,07,11,14,51,28.50
2010,07,11,14,52,28.50
2010,07,11,14,53,28.50
2010,07,11,14,54,28.40
2010,07,11,14,55,28.30
2010,07,11,14,56,28.10
2010,07,11,14,57,28.00
2010,07,11,14,58,27.90
2010,07,11,14,59,27.90
2010,07,11,15,00,27.90
2010,07,11,15,01,28.00
2010,07,11,15,02,28.10
2010,07,11,15,03,28.30
2010,07,11,15,04,28.40
2010,07,11,15,05,28.50
2010,07,11,15,06,28.60
2010,07,11,15,07,28.80
2010,07,11,15,08,28.80
2010,07,11,15,09,28.70
2010,07,11,15,10,28.70
2010,07,11,15,11,28.60
2010,07,11,15,12,28.70
2010,07,11,15,13,28.70
2010,07,11,15,14,28.50
2010,07,11,15,15,28.40
2010,07,11,15,16,28.30
2010,07,11,15,17,28.30
2010,07,11,15,18,28.20
2010,07,11,15,19,28.20
2010,07,11,15,20,28.20
2010,07,11,15,21,28.20
2010,07,11,15,22,28.20
2010,07,11,15,23,28.10
2010,07,11,15,24,28.10
2010,07,11,15,25,28.10
2010,07,11,15,26,28.00
2010,07,11,15,27,28.00
2010,07,11,15,28,28.10
2010,07,11,15,29,28.20
2010,07,11,15,30,28.10
2010,07,11,15,31,28.10
2010,07,11,15,32,28.10
2010,07,11,15,33,28.00
2010,07,11,15,34,28.00
2010,07,11,15,35,28.00
2010,07,11,15,36,28.00
2010,07,11,15,37,28.00
2010,07,11,15,38,28.10
2010,07,11,15,39,28.10
2010,07,11,15,40,28.10
2010,07,11,15,41,28.20
2010,07,11,15,42,28.30
2010,07,11,15,43,28.40
2010,07,11,15,44,28.40
2010,07,11,15,45,28.50
2010,07,11,15,46,28.40
2010,07,11,15,47,28.30
2010,07,11,15,48,28.30
2010,07,11,15,49,28.30
2010,07,11,15,50,28.20
2010,07,11,15,51,28.00
2010,07,11,15,52,27.80
2010,07,11,15,53,27.80
2010,07,11,15,54,27.70
2010,07,11,15,55,27.60
2010,07,11,15,56,27.60
2010,07,11,15,57,27.60
2010,07,11,15,58,27.60
2010,07,11,15,59,27.70
2010,07,11,16,00,27.70
2010,07,11,16,01,27.80
2010,07,11,16,02,27.80
2010,07,11,16,03,27.80
2010,07,11,16,04,27.90
2010,07,11,16,05,27.90
2010,07,11,16,06,28.00
2010,07,11,16,07,28.00
2010,07,11,16,08,28.10
2010,07,11,16,09,28.00
2010,07,11,16,10,28.00
2010,07,11,16,11,27.90
2010,07,11,16,12,27.80
2010,07,11,16,13,27.70
2010,07,11,16,14,27.60
2010,07,11,16,15,27.50
2010,07,11,16,16,27.50
2010,07,11,16,17,27.40
2010,07,11,16,18,27.40
2010,07,11,16,19,27.40
2010,07,11,16,20,27.50
2010,07,11,16,21,27.60
2010,07,11,16,22,27.60
2010,07,11,16,23,27.60
2010,07,11,16,24,27.50
2010,07,11,16,25,27.50
2010,07,11,16,26,27.50
2010,07,11,16,27,27.60
2010,07,11,16,28,27.50
2010,07,11,16,29,27.40
2010,07,11,16,30,27.40
2010,07,11,16,31,27.50
2010,07,11,16,32,27.60
2010,07,11,16,33,27.50
2010,07,11,16,34,27.40
2010,07,11,16,35,27.40
2010,07,11,16,36,27.50
2010,07,11,16,37,27.60
2010,07,11,16,38,27.60
2010,07,11,16,39,27.70
2010,07,11,16,40,27.80
2010,07,11,16,41,27.80
2010,07,11,16,42,27.90
2010,07,11,16,43,28.10
2010,07,11,16,44,28.20
2010,07,11,16,45,28.20
2010,07,11,16,46,28.30
2010,07,11,16,47,28.30
2010,07,11,16,48,28.20
2010,07,11,16,49,28.20
2010,07,11,16,50,28.10
2010,07,11,16,51,28.00
2010,07,11,16,52,28.00
2010,07,11,16,53,28.10
2010,07,11,16,54,28.20
2010,07,11,16,55,28.20
2010,07,11,16,56,28.30
2010,07,11,16,57,28.30
2010,07,11,16,58,28.40
2010,07,11,16,59,28.40
2010,07,11,17,00,28.50
2010,07,11,17,01,28.50
2010,07,11,17,02,28.60
2010,07,11,17,03,28.60
2010,07,11,17,04,28.50
2010,07,11,17,05,28.30
2010,07,11,17,06,28.20
2010,07,11,17,07,28.20
2010,07,11,17,08,28.20
2010,07,11,17,09,28.20
2010,07,11,17,10,28.20
2010,07,11,17,11,28.20
2010,07,11,17,12,28.20
2010,07,11,17,13,28.20
2010,07,11,17,14,28.20
2010,07,11,17,15,28.20
2010,07,11,17,16,28.20
2010,07,11,17,17,28.10
2010,07,11,17,18,28.10
2010,07,11,17,19,28.00